Location: Unspecified
(52.0000°N, 4.4000°E)
Time: 01:11:08
(UTC+00:00)

SL-8 Rocket - Pass Details

Date: 14 May 2025
Orbit: 955 x 990 km, 82.9° (Epoch: 23 June)

Event Time Altitude Azimuth Distance (km) Brightness Sun altitude
Rises 20:57:22 0° 351° (N) 3,665 8.2 -10.9°
Reaches altitude 10° 20:59:59 10° 357° (N) 2,711 7.2 -11.2°
Maximum altitude 21:06:01 52° 73° (ENE) 1,179 4.3 -11.7°
Enters shadow 21:10:48 16° 146° (SE) 2,264 5.2 -12.2°
